Simultaneous Nadir Overpasses (SNOs) Predictions

Prediction of SNOs between NPP and TERRA Satellite Orbit:

Table of predicted SNOs for the next 14.0 days since TLE Epoch: 2/17/2024
Index Date (NPP) Time (NPP) Lat,Lon (NPP) SZA (NPP ) Date (TERRA) Time (TERRA) Lat,Lon (TERRA) SZA (TERRA ) Distance(km) Time Diff (sec)
1 02/17/2024 04:13:56 71.71, 110.34 84.04 02/17/2024 04:14:00 71.73, 110.27 84.06 3.26 4
2 02/17/2024 05:04:38 -71.62, -82.17 96.08 02/17/2024 05:03:25 -71.64, -82.22 96.04 3.23 73
3 02/19/2024 15:26:30 72.22, -58.72 83.72 02/19/2024 15:27:40 72.10, -57.58 83.53 41.18 70
4 02/19/2024 16:17:05 -71.77, 109.46 96.79 02/19/2024 16:17:10 -71.75, 109.48 96.81 2.22 5
5 02/19/2024 17:07:46 71.51, -82.76 82.92 02/19/2024 17:06:33 71.56, -83.17 83.01 15.40 73
6 02/22/2024 03:29:39 -72.28, -59.62 97.12 02/22/2024 03:30:49 -72.14, -58.33 97.34 46.67 70
7 02/22/2024 04:20:15 71.77, 108.66 82.32 02/22/2024 04:20:15 71.79, 108.74 82.33 3.32 0
8 02/22/2024 05:10:55 -71.57, -83.66 97.91 02/22/2024 05:09:42 -71.60, -83.92 97.86 9.66 73
9 02/24/2024 15:32:45 72.10, -60.05 81.76 02/24/2024 15:33:57 71.98, -59.41 81.60 25.38 72
10 02/24/2024 16:23:23 -71.79, 107.84 98.58 02/24/2024 16:23:24 -71.80, 107.93 98.59 3.13 1
11 02/24/2024 17:14:01 71.38, -84.11 80.96 02/24/2024 17:12:50 71.44, -84.99 81.08 31.85 71
12 02/27/2024 03:35:52 -72.12, -60.88 99.15 02/27/2024 03:37:04 -72.01, -60.18 99.31 27.29 72
13 02/27/2024 04:26:31 71.77, 107.09 80.46 02/27/2024 04:26:28 71.76, 107.07 80.45 1.35 3
14 02/27/2024 05:17:08 -71.41, -84.95 99.94 02/27/2024 05:15:56 -71.52, -85.68 99.78 28.43 72
15 02/29/2024 15:38:58 71.96, -61.36 79.73 02/29/2024 15:40:09 71.94, -61.10 79.68 9.18 71
16 02/29/2024 16:29:39 -71.81, 106.24 100.45 02/29/2024 16:29:35 -71.80, 106.32 100.46 2.90 4



Historial Predications of SNOs between NPP and TERRA
